Data supplied by UK-AIR on 5/4/2008
All Data GMT hour ending 
Status: R =Ratified P=Provisional,P*=As supplied
,,Walsall Alumwell,,,,,,,,,,,,,,,,,,,,,,,
Date,time,"Nitric oxide",status,unit,"Nitrogen dioxide",status,unit,"Nitrogen oxides as nitrogen dioxide",status,unit
 
01-01-1994,01:00,,,,,,,,,
01-01-1994,02:00,14,R,ugm-3,52,R,ugm-3,73,R,ugm-3
01-01-1994,03:00,16,R,ugm-3,55,R,ugm-3,80,R,ugm-3
01-01-1994,04:00,5,R,ugm-3,44,R,ugm-3,52,R,ugm-3
01-01-1994,05:00,1,R,ugm-3,42,R,ugm-3,44,R,ugm-3
01-01-1994,06:00,0,R,ugm-3,36,R,ugm-3,36,R,ugm-3
01-01-1994,07:00,1,R,ugm-3,36,R,ugm-3,38,R,ugm-3
01-01-1994,08:00,4,R,ugm-3,46,R,ugm-3,52,R,ugm-3
01-01-1994,09:00,35,R,ugm-3,55,R,ugm-3,109,R,ugm-3
01-01-1994,10:00,40,R,ugm-3,55,R,ugm-3,117,R,ugm-3
01-01-1994,11:00,66,R,ugm-3,57,R,ugm-3,159,R,ugm-3
01-01-1994,12:00,48,R,ugm-3,53,R,ugm-3,126,R,ugm-3
01-01-1994,13:00,64,R,ugm-3,59,R,ugm-3,157,R,ugm-3
01-01-1994,14:00,33,R,ugm-3,50,R,ugm-3,99,R,ugm-3
01-01-1994,15:00,26,R,ugm-3,53,R,ugm-3,94,R,ugm-3
01-01-1994,16:00,25,R,ugm-3,57,R,ugm-3,96,R,ugm-3
01-01-1994,17:00,36,R,ugm-3,67,R,ugm-3,122,R,ugm-3
01-01-1994,18:00,48,R,ugm-3,71,R,ugm-3,143,R,ugm-3
01-01-1994,19:00,16,R,ugm-3,57,R,ugm-3,82,R,ugm-3
01-01-1994,20:00,11,R,ugm-3,53,R,ugm-3,71,R,ugm-3
01-01-1994,21:00,8,R,ugm-3,53,R,ugm-3,65,R,ugm-3
01-01-1994,22:00,5,R,ugm-3,50,R,ugm-3,57,R,ugm-3
01-01-1994,23:00,1,R,ugm-3,32,R,ugm-3,34,R,ugm-3
01-01-1994,24:00,0,R,ugm-3,21,R,ugm-3,21,R,ugm-3
02-01-1994,01:00,0,R,ugm-3,13,R,ugm-3,13,R,ugm-3
02-01-1994,02:00,0,R,ugm-3,13,R,ugm-3,13,R,ugm-3
02-01-1994,03:00,1,R,ugm-3,15,R,ugm-3,17,R,ugm-3
02-01-1994,04:00,1,R,ugm-3,11,R,ugm-3,13,R,ugm-3
02-01-1994,05:00,1,R,ugm-3,11,R,ugm-3,13,R,ugm-3
02-01-1994,06:00,3,R,ugm-3,10,R,ugm-3,13,R,ugm-3
02-01-1994,07:00,3,R,ugm-3,15,R,ugm-3,19,R,ugm-3
02-01-1994,08:00,3,R,ugm-3,11,R,ugm-3,15,R,ugm-3
02-01-1994,09:00,4,R,ugm-3,13,R,ugm-3,19,R,ugm-3
02-01-1994,10:00,9,R,ugm-3,19,R,ugm-3,32,R,ugm-3
02-01-1994,11:00,19,R,ugm-3,25,R,ugm-3,53,R,ugm-3
02-01-1994,12:00,24,R,ugm-3,27,R,ugm-3,63,R,ugm-3
02-01-1994,13:00,26,R,ugm-3,32,R,ugm-3,73,R,ugm-3
02-01-1994,14:00,33,R,ugm-3,40,R,ugm-3,90,R,ugm-3
02-01-1994,15:00,40,R,ugm-3,50,R,ugm-3,111,R,ugm-3
02-01-1994,16:00,39,R,ugm-3,44,R,ugm-3,103,R,ugm-3
02-01-1994,17:00,60,R,ugm-3,55,R,ugm-3,147,R,ugm-3
02-01-1994,18:00,53,R,ugm-3,55,R,ugm-3,136,R,ugm-3
02-01-1994,19:00,44,R,ugm-3,52,R,ugm-3,118,R,ugm-3
02-01-1994,20:00,55,R,ugm-3,59,R,ugm-3,143,R,ugm-3
02-01-1994,21:00,46,R,ugm-3,59,R,ugm-3,130,R,ugm-3
02-01-1994,22:00,43,R,ugm-3,53,R,ugm-3,118,R,ugm-3
02-01-1994,23:00,54,R,ugm-3,61,R,ugm-3,143,R,ugm-3
02-01-1994,24:00,18,R,ugm-3,50,R,ugm-3,76,R,ugm-3
03-01-1994,01:00,5,R,ugm-3,42,R,ugm-3,50,R,ugm-3
03-01-1994,02:00,3,R,ugm-3,34,R,ugm-3,38,R,ugm-3
03-01-1994,03:00,4,R,ugm-3,36,R,ugm-3,42,R,ugm-3
03-01-1994,04:00,8,R,ugm-3,48,R,ugm-3,59,R,ugm-3
03-01-1994,05:00,5,R,ugm-3,32,R,ugm-3,40,R,ugm-3
03-01-1994,06:00,5,R,ugm-3,25,R,ugm-3,32,R,ugm-3
03-01-1994,07:00,4,R,ugm-3,31,R,ugm-3,36,R,ugm-3
03-01-1994,08:00,6,R,ugm-3,36,R,ugm-3,46,R,ugm-3
03-01-1994,09:00,15,R,ugm-3,52,R,ugm-3,74,R,ugm-3
03-01-1994,10:00,11,R,ugm-3,46,R,ugm-3,63,R,ugm-3
03-01-1994,11:00,11,R,ugm-3,46,R,ugm-3,63,R,ugm-3
03-01-1994,12:00,15,R,ugm-3,42,R,ugm-3,65,R,ugm-3
03-01-1994,13:00,9,R,ugm-3,38,R,ugm-3,52,R,ugm-3
03-01-1994,14:00,8,R,ugm-3,40,R,ugm-3,52,R,ugm-3
03-01-1994,15:00,9,R,ugm-3,52,R,ugm-3,65,R,ugm-3
03-01-1994,16:00,58,R,ugm-3,63,R,ugm-3,151,R,ugm-3
03-01-1994,17:00,49,R,ugm-3,61,R,ugm-3,136,R,ugm-3
03-01-1994,18:00,23,R,ugm-3,38,R,ugm-3,73,R,ugm-3
03-01-1994,19:00,28,R,ugm-3,34,R,ugm-3,76,R,ugm-3
03-01-1994,20:00,29,R,ugm-3,36,R,ugm-3,80,R,ugm-3
03-01-1994,21:00,31,R,ugm-3,34,R,ugm-3,82,R,ugm-3
03-01-1994,22:00,31,R,ugm-3,44,R,ugm-3,92,R,ugm-3
03-01-1994,23:00,33,R,ugm-3,53,R,ugm-3,103,R,ugm-3
03-01-1994,24:00,19,R,ugm-3,53,R,ugm-3,82,R,ugm-3
04-01-1994,01:00,19,R,ugm-3,44,R,ugm-3,73,R,ugm-3
04-01-1994,02:00,13,R,ugm-3,27,R,ugm-3,46,R,ugm-3
04-01-1994,03:00,10,R,ugm-3,25,R,ugm-3,40,R,ugm-3
04-01-1994,04:00,11,R,ugm-3,29,R,ugm-3,46,R,ugm-3
04-01-1994,05:00,14,R,ugm-3,32,R,ugm-3,53,R,ugm-3
04-01-1994,06:00,16,R,ugm-3,42,R,ugm-3,67,R,ugm-3
04-01-1994,07:00,41,R,ugm-3,59,R,ugm-3,122,R,ugm-3
04-01-1994,08:00,153,R,ugm-3,73,R,ugm-3,306,R,ugm-3
04-01-1994,09:00,135,R,ugm-3,76,R,ugm-3,283,R,ugm-3
04-01-1994,10:00,216,R,ugm-3,78,R,ugm-3,409,R,ugm-3
04-01-1994,11:00,196,R,ugm-3,74,R,ugm-3,374,R,ugm-3
04-01-1994,12:00,144,R,ugm-3,69,R,ugm-3,288,R,ugm-3
04-01-1994,13:00,89,R,ugm-3,55,R,ugm-3,191,R,ugm-3
04-01-1994,14:00,85,R,ugm-3,53,R,ugm-3,183,R,ugm-3
04-01-1994,15:00,99,R,ugm-3,57,R,ugm-3,208,R,ugm-3
04-01-1994,16:00,156,R,ugm-3,73,R,ugm-3,311,R,ugm-3
04-01-1994,17:00,205,R,ugm-3,71,R,ugm-3,384,R,ugm-3
04-01-1994,18:00,139,R,ugm-3,69,R,ugm-3,281,R,ugm-3
04-01-1994,19:00,188,R,ugm-3,61,R,ugm-3,348,R,ugm-3
04-01-1994,20:00,235,R,ugm-3,67,R,ugm-3,426,R,ugm-3
04-01-1994,21:00,198,R,ugm-3,73,R,ugm-3,374,R,ugm-3
04-01-1994,22:00,110,R,ugm-3,69,R,ugm-3,237,R,ugm-3
04-01-1994,23:00,53,R,ugm-3,57,R,ugm-3,138,R,ugm-3
04-01-1994,24:00,33,R,ugm-3,57,R,ugm-3,107,R,ugm-3
05-01-1994,01:00,21,R,ugm-3,53,R,ugm-3,86,R,ugm-3
05-01-1994,02:00,23,R,ugm-3,53,R,ugm-3,88,R,ugm-3
05-01-1994,03:00,3,R,ugm-3,36,R,ugm-3,40,R,ugm-3
05-01-1994,04:00,1,R,ugm-3,27,R,ugm-3,29,R,ugm-3
05-01-1994,05:00,0,R,ugm-3,17,R,ugm-3,17,R,ugm-3
05-01-1994,06:00,0,R,ugm-3,29,R,ugm-3,29,R,ugm-3
05-01-1994,07:00,4,R,ugm-3,46,R,ugm-3,52,R,ugm-3
05-01-1994,08:00,78,R,ugm-3,65,R,ugm-3,183,R,ugm-3
05-01-1994,09:00,181,R,ugm-3,74,R,ugm-3,351,R,ugm-3
05-01-1994,10:00,121,R,ugm-3,65,R,ugm-3,250,R,ugm-3
05-01-1994,11:00,128,R,ugm-3,67,R,ugm-3,262,R,ugm-3
05-01-1994,12:00,89,R,ugm-3,57,R,ugm-3,193,R,ugm-3
05-01-1994,13:00,53,R,ugm-3,44,R,ugm-3,124,R,ugm-3
05-01-1994,14:00,40,R,ugm-3,36,R,ugm-3,97,R,ugm-3
05-01-1994,15:00,49,R,ugm-3,46,R,ugm-3,120,R,ugm-3
05-01-1994,16:00,55,R,ugm-3,52,R,ugm-3,136,R,ugm-3
05-01-1994,17:00,41,R,ugm-3,38,R,ugm-3,101,R,ugm-3
05-01-1994,18:00,60,R,ugm-3,52,R,ugm-3,143,R,ugm-3
05-01-1994,19:00,65,R,ugm-3,53,R,ugm-3,153,R,ugm-3
05-01-1994,20:00,59,R,ugm-3,55,R,ugm-3,145,R,ugm-3
05-01-1994,21:00,88,R,ugm-3,67,R,ugm-3,201,R,ugm-3
05-01-1994,22:00,53,R,ugm-3,69,R,ugm-3,149,R,ugm-3
05-01-1994,23:00,59,R,ugm-3,73,R,ugm-3,162,R,ugm-3
05-01-1994,24:00,131,R,ugm-3,71,R,ugm-3,271,R,ugm-3
06-01-1994,01:00,188,R,ugm-3,88,R,ugm-3,374,R,ugm-3
06-01-1994,02:00,60,R,ugm-3,71,R,ugm-3,162,R,ugm-3
06-01-1994,03:00,9,R,ugm-3,67,R,ugm-3,80,R,ugm-3
06-01-1994,04:00,100,R,ugm-3,82,R,ugm-3,235,R,ugm-3
06-01-1994,05:00,93,R,ugm-3,73,R,ugm-3,214,R,ugm-3
06-01-1994,06:00,231,R,ugm-3,78,R,ugm-3,432,R,ugm-3
06-01-1994,07:00,376,R,ugm-3,90,R,ugm-3,665,R,ugm-3
06-01-1994,08:00,509,R,ugm-3,99,R,ugm-3,877,R,ugm-3
06-01-1994,09:00,333,R,ugm-3,92,R,ugm-3,600,R,ugm-3
06-01-1994,10:00,241,R,ugm-3,84,R,ugm-3,453,R,ugm-3
06-01-1994,11:00,171,R,ugm-3,94,R,ugm-3,355,R,ugm-3
06-01-1994,12:00,25,R,ugm-3,73,R,ugm-3,111,R,ugm-3
06-01-1994,13:00,24,R,ugm-3,76,R,ugm-3,113,R,ugm-3
06-01-1994,14:00,13,R,ugm-3,67,R,ugm-3,86,R,ugm-3
06-01-1994,15:00,154,R,ugm-3,92,R,ugm-3,327,R,ugm-3
06-01-1994,16:00,233,R,ugm-3,90,R,ugm-3,445,R,ugm-3
06-01-1994,17:00,325,R,ugm-3,96,R,ugm-3,592,R,ugm-3
06-01-1994,18:00,368,R,ugm-3,94,R,ugm-3,655,R,ugm-3
06-01-1994,19:00,393,R,ugm-3,97,R,ugm-3,697,R,ugm-3
06-01-1994,20:00,300,R,ugm-3,97,R,ugm-3,556,R,ugm-3
06-01-1994,21:00,356,R,ugm-3,92,R,ugm-3,636,R,ugm-3
06-01-1994,22:00,374,R,ugm-3,92,R,ugm-3,663,R,ugm-3
06-01-1994,23:00,660,R,ugm-3,105,R,ugm-3,1114,R,ugm-3
06-01-1994,24:00,563,R,ugm-3,105,R,ugm-3,965,R,ugm-3
07-01-1994,01:00,434,R,ugm-3,86,R,ugm-3,749,R,ugm-3
07-01-1994,02:00,344,R,ugm-3,94,R,ugm-3,619,R,ugm-3
07-01-1994,03:00,143,R,ugm-3,74,R,ugm-3,292,R,ugm-3
07-01-1994,04:00,168,R,ugm-3,74,R,ugm-3,330,R,ugm-3
07-01-1994,05:00,91,R,ugm-3,65,R,ugm-3,204,R,ugm-3
07-01-1994,06:00,165,R,ugm-3,67,R,ugm-3,319,R,ugm-3
07-01-1994,07:00,150,R,ugm-3,67,R,ugm-3,296,R,ugm-3
07-01-1994,08:00,276,R,ugm-3,69,R,ugm-3,491,R,ugm-3
07-01-1994,09:00,408,R,ugm-3,88,R,ugm-3,711,R,ugm-3
07-01-1994,10:00,313,R,ugm-3,76,R,ugm-3,554,R,ugm-3
07-01-1994,11:00,198,R,ugm-3,73,R,ugm-3,374,R,ugm-3
07-01-1994,12:00,161,R,ugm-3,67,R,ugm-3,313,R,ugm-3
07-01-1994,13:00,114,R,ugm-3,63,R,ugm-3,237,R,ugm-3
07-01-1994,14:00,94,R,ugm-3,69,R,ugm-3,212,R,ugm-3
07-01-1994,15:00,164,R,ugm-3,74,R,ugm-3,325,R,ugm-3
07-01-1994,16:00,159,R,ugm-3,76,R,ugm-3,319,R,ugm-3
07-01-1994,17:00,221,R,ugm-3,76,R,ugm-3,414,R,ugm-3
07-01-1994,18:00,320,R,ugm-3,80,R,ugm-3,569,R,ugm-3
07-01-1994,19:00,479,R,ugm-3,82,R,ugm-3,814,R,ugm-3
07-01-1994,20:00,563,R,ugm-3,88,R,ugm-3,947,R,ugm-3
07-01-1994,21:00,471,R,ugm-3,88,R,ugm-3,808,R,ugm-3
07-01-1994,22:00,453,R,ugm-3,92,R,ugm-3,783,R,ugm-3
07-01-1994,23:00,435,R,ugm-3,90,R,ugm-3,754,R,ugm-3
07-01-1994,24:00,404,R,ugm-3,80,R,ugm-3,697,R,ugm-3
08-01-1994,01:00,441,R,ugm-3,74,R,ugm-3,749,R,ugm-3
08-01-1994,02:00,330,R,ugm-3,71,R,ugm-3,575,R,ugm-3
08-01-1994,03:00,209,R,ugm-3,71,R,ugm-3,390,R,ugm-3
08-01-1994,04:00,228,R,ugm-3,69,R,ugm-3,416,R,ugm-3
08-01-1994,05:00,110,R,ugm-3,65,R,ugm-3,233,R,ugm-3
08-01-1994,06:00,83,R,ugm-3,65,R,ugm-3,191,R,ugm-3
08-01-1994,07:00,115,R,ugm-3,67,R,ugm-3,243,R,ugm-3
08-01-1994,08:00,169,R,ugm-3,78,R,ugm-3,336,R,ugm-3
08-01-1994,09:00,175,R,ugm-3,76,R,ugm-3,344,R,ugm-3
08-01-1994,10:00,140,R,ugm-3,69,R,ugm-3,283,R,ugm-3
08-01-1994,11:00,114,R,ugm-3,63,R,ugm-3,237,R,ugm-3
08-01-1994,12:00,80,R,ugm-3,63,R,ugm-3,185,R,ugm-3
08-01-1994,13:00,65,R,ugm-3,55,R,ugm-3,155,R,ugm-3
08-01-1994,14:00,58,R,ugm-3,55,R,ugm-3,143,R,ugm-3
08-01-1994,15:00,61,R,ugm-3,53,R,ugm-3,147,R,ugm-3
08-01-1994,16:00,71,R,ugm-3,53,R,ugm-3,162,R,ugm-3
08-01-1994,17:00,98,R,ugm-3,55,R,ugm-3,204,R,ugm-3
08-01-1994,18:00,70,R,ugm-3,59,R,ugm-3,166,R,ugm-3
08-01-1994,19:00,38,R,ugm-3,59,R,ugm-3,117,R,ugm-3
08-01-1994,20:00,36,R,ugm-3,57,R,ugm-3,113,R,ugm-3
08-01-1994,21:00,26,R,ugm-3,53,R,ugm-3,94,R,ugm-3
08-01-1994,22:00,4,R,ugm-3,44,R,ugm-3,50,R,ugm-3
08-01-1994,23:00,0,R,ugm-3,34,R,ugm-3,34,R,ugm-3
08-01-1994,24:00,0,R,ugm-3,29,R,ugm-3,29,R,ugm-3
09-01-1994,01:00,1,R,ugm-3,25,R,ugm-3,27,R,ugm-3
09-01-1994,02:00,0,R,ugm-3,17,R,ugm-3,17,R,ugm-3
09-01-1994,03:00,0,R,ugm-3,13,R,ugm-3,13,R,ugm-3
09-01-1994,04:00,0,R,ugm-3,13,R,ugm-3,13,R,ugm-3
09-01-1994,05:00,0,R,ugm-3,13,R,ugm-3,13,R,ugm-3
09-01-1994,06:00,3,R,ugm-3,23,R,ugm-3,27,R,ugm-3
09-01-1994,07:00,0,R,ugm-3,29,R,ugm-3,29,R,ugm-3
09-01-1994,08:00,4,R,ugm-3,40,R,ugm-3,46,R,ugm-3
09-01-1994,09:00,5,R,ugm-3,40,R,ugm-3,48,R,ugm-3
09-01-1994,10:00,6,R,ugm-3,34,R,ugm-3,44,R,ugm-3
09-01-1994,11:00,9,R,ugm-3,38,R,ugm-3,52,R,ugm-3
09-01-1994,12:00,11,R,ugm-3,42,R,ugm-3,59,R,ugm-3
09-01-1994,13:00,8,R,ugm-3,44,R,ugm-3,55,R,ugm-3
09-01-1994,14:00,6,R,ugm-3,46,R,ugm-3,55,R,ugm-3
09-01-1994,15:00,4,R,ugm-3,38,R,ugm-3,44,R,ugm-3
09-01-1994,16:00,3,R,ugm-3,36,R,ugm-3,40,R,ugm-3
09-01-1994,17:00,3,R,ugm-3,38,R,ugm-3,42,R,ugm-3
09-01-1994,18:00,3,R,ugm-3,31,R,ugm-3,34,R,ugm-3
09-01-1994,19:00,5,R,ugm-3,34,R,ugm-3,42,R,ugm-3
09-01-1994,20:00,4,R,ugm-3,32,R,ugm-3,38,R,ugm-3
09-01-1994,21:00,3,R,ugm-3,25,R,ugm-3,29,R,ugm-3
09-01-1994,22:00,4,R,ugm-3,27,R,ugm-3,32,R,ugm-3
09-01-1994,23:00,5,R,ugm-3,27,R,ugm-3,34,R,ugm-3
09-01-1994,24:00,6,R,ugm-3,34,R,ugm-3,44,R,ugm-3
10-01-1994,01:00,0,R,ugm-3,25,R,ugm-3,25,R,ugm-3
10-01-1994,02:00,0,R,ugm-3,17,R,ugm-3,17,R,ugm-3
10-01-1994,03:00,0,R,ugm-3,17,R,ugm-3,17,R,ugm-3
10-01-1994,04:00,0,R,ugm-3,48,R,ugm-3,48,R,ugm-3
10-01-1994,05:00,0,R,ugm-3,29,R,ugm-3,29,R,ugm-3
10-01-1994,06:00,3,R,ugm-3,53,R,ugm-3,57,R,ugm-3
10-01-1994,07:00,41,R,ugm-3,74,R,ugm-3,138,R,ugm-3
10-01-1994,08:00,49,R,ugm-3,80,R,ugm-3,155,R,ugm-3
10-01-1994,09:00,106,R,ugm-3,88,R,ugm-3,250,R,ugm-3
10-01-1994,10:00,35,R,ugm-3,69,R,ugm-3,122,R,ugm-3
10-01-1994,11:00,18,R,ugm-3,63,R,ugm-3,90,R,ugm-3
10-01-1994,12:00,21,R,ugm-3,61,R,ugm-3,94,R,ugm-3
10-01-1994,13:00,18,R,ugm-3,57,R,ugm-3,84,R,ugm-3
10-01-1994,14:00,15,R,ugm-3,59,R,ugm-3,82,R,ugm-3
10-01-1994,15:00,33,R,ugm-3,71,R,ugm-3,120,R,ugm-3
10-01-1994,16:00,31,R,ugm-3,76,R,ugm-3,124,R,ugm-3
10-01-1994,17:00,34,R,ugm-3,76,R,ugm-3,128,R,ugm-3
10-01-1994,18:00,50,R,ugm-3,82,R,ugm-3,159,R,ugm-3
10-01-1994,19:00,70,R,ugm-3,88,R,ugm-3,195,R,ugm-3
10-01-1994,20:00,68,R,ugm-3,82,R,ugm-3,185,R,ugm-3
10-01-1994,21:00,53,R,ugm-3,73,R,ugm-3,153,R,ugm-3
10-01-1994,22:00,35,R,ugm-3,67,R,ugm-3,120,R,ugm-3
10-01-1994,23:00,34,R,ugm-3,63,R,ugm-3,115,R,ugm-3
10-01-1994,24:00,43,R,ugm-3,61,R,ugm-3,126,R,ugm-3
11-01-1994,01:00,20,R,ugm-3,76,R,ugm-3,107,R,ugm-3
11-01-1994,02:00,38,R,ugm-3,71,R,ugm-3,128,R,ugm-3
11-01-1994,03:00,9,R,ugm-3,67,R,ugm-3,80,R,ugm-3
11-01-1994,04:00,19,R,ugm-3,57,R,ugm-3,86,R,ugm-3
11-01-1994,05:00,13,R,ugm-3,53,R,ugm-3,73,R,ugm-3
11-01-1994,06:00,43,R,ugm-3,63,R,ugm-3,128,R,ugm-3
11-01-1994,07:00,39,R,ugm-3,74,R,ugm-3,134,R,ugm-3
11-01-1994,08:00,41,R,ugm-3,74,R,ugm-3,138,R,ugm-3
11-01-1994,09:00,53,R,ugm-3,74,R,ugm-3,155,R,ugm-3
11-01-1994,10:00,45,R,ugm-3,69,R,ugm-3,138,R,ugm-3
11-01-1994,11:00,33,R,ugm-3,67,R,ugm-3,117,R,ugm-3
11-01-1994,12:00,43,R,ugm-3,69,R,ugm-3,134,R,ugm-3
11-01-1994,13:00,13,R,ugm-3,63,R,ugm-3,82,R,ugm-3
11-01-1994,14:00,10,R,ugm-3,67,R,ugm-3,82,R,ugm-3
11-01-1994,15:00,5,R,ugm-3,67,R,ugm-3,74,R,ugm-3
11-01-1994,16:00,9,R,ugm-3,65,R,ugm-3,78,R,ugm-3
11-01-1994,17:00,50,R,ugm-3,73,R,ugm-3,149,R,ugm-3
11-01-1994,18:00,65,R,ugm-3,80,R,ugm-3,180,R,ugm-3
11-01-1994,19:00,95,R,ugm-3,86,R,ugm-3,231,R,ugm-3
11-01-1994,20:00,79,R,ugm-3,78,R,ugm-3,199,R,ugm-3
11-01-1994,21:00,25,R,ugm-3,55,R,ugm-3,94,R,ugm-3
11-01-1994,22:00,36,R,ugm-3,73,R,ugm-3,128,R,ugm-3
11-01-1994,23:00,13,R,ugm-3,71,R,ugm-3,90,R,ugm-3
11-01-1994,24:00,29,R,ugm-3,76,R,ugm-3,120,R,ugm-3
12-01-1994,01:00,15,R,ugm-3,57,R,ugm-3,80,R,ugm-3
12-01-1994,02:00,8,R,ugm-3,46,R,ugm-3,57,R,ugm-3
12-01-1994,03:00,5,R,ugm-3,46,R,ugm-3,53,R,ugm-3
12-01-1994,04:00,1,R,ugm-3,36,R,ugm-3,38,R,ugm-3
12-01-1994,05:00,10,R,ugm-3,34,R,ugm-3,50,R,ugm-3
12-01-1994,06:00,9,R,ugm-3,34,R,ugm-3,48,R,ugm-3
12-01-1994,07:00,13,R,ugm-3,40,R,ugm-3,59,R,ugm-3
12-01-1994,08:00,19,R,ugm-3,46,R,ugm-3,74,R,ugm-3
12-01-1994,09:00,16,R,ugm-3,46,R,ugm-3,71,R,ugm-3
12-01-1994,10:00,25,R,ugm-3,50,R,ugm-3,88,R,ugm-3
12-01-1994,11:00,34,R,ugm-3,52,R,ugm-3,103,R,ugm-3
12-01-1994,12:00,55,R,ugm-3,59,R,ugm-3,143,R,ugm-3
12-01-1994,13:00,,,,,,,,,
12-01-1994,14:00,88,R,ugm-3,65,R,ugm-3,199,R,ugm-3
12-01-1994,15:00,83,R,ugm-3,65,R,ugm-3,191,R,ugm-3
12-01-1994,16:00,78,R,ugm-3,69,R,ugm-3,187,R,ugm-3
12-01-1994,17:00,46,R,ugm-3,61,R,ugm-3,132,R,ugm-3
12-01-1994,18:00,58,R,ugm-3,67,R,ugm-3,155,R,ugm-3
12-01-1994,19:00,33,R,ugm-3,44,R,ugm-3,94,R,ugm-3
12-01-1994,20:00,28,R,ugm-3,42,R,ugm-3,84,R,ugm-3
12-01-1994,21:00,16,R,ugm-3,29,R,ugm-3,53,R,ugm-3
12-01-1994,22:00,16,R,ugm-3,34,R,ugm-3,59,R,ugm-3
12-01-1994,23:00,13,R,ugm-3,31,R,ugm-3,50,R,ugm-3
12-01-1994,24:00,13,R,ugm-3,29,R,ugm-3,48,R,ugm-3
13-01-1994,01:00,4,R,ugm-3,25,R,ugm-3,31,R,ugm-3
13-01-1994,02:00,3,R,ugm-3,25,R,ugm-3,29,R,ugm-3
13-01-1994,03:00,4,R,ugm-3,25,R,ugm-3,31,R,ugm-3
13-01-1994,04:00,3,R,ugm-3,27,R,ugm-3,31,R,ugm-3
13-01-1994,05:00,6,R,ugm-3,29,R,ugm-3,38,R,ugm-3
13-01-1994,06:00,20,R,ugm-3,44,R,ugm-3,74,R,ugm-3
13-01-1994,07:00,64,R,ugm-3,63,R,ugm-3,160,R,ugm-3
13-01-1994,08:00,44,R,ugm-3,53,R,ugm-3,120,R,ugm-3
13-01-1994,09:00,44,R,ugm-3,57,R,ugm-3,124,R,ugm-3
13-01-1994,10:00,68,R,ugm-3,63,R,ugm-3,166,R,ugm-3
13-01-1994,11:00,48,R,ugm-3,50,R,ugm-3,122,R,ugm-3
13-01-1994,12:00,40,R,ugm-3,44,R,ugm-3,105,R,ugm-3
13-01-1994,13:00,43,R,ugm-3,48,R,ugm-3,113,R,ugm-3
13-01-1994,14:00,43,R,ugm-3,48,R,ugm-3,113,R,ugm-3
13-01-1994,15:00,44,R,ugm-3,48,R,ugm-3,115,R,ugm-3
13-01-1994,16:00,39,R,ugm-3,48,R,ugm-3,107,R,ugm-3
13-01-1994,17:00,48,R,ugm-3,57,R,ugm-3,130,R,ugm-3
13-01-1994,18:00,49,R,ugm-3,57,R,ugm-3,132,R,ugm-3
13-01-1994,19:00,40,R,ugm-3,57,R,ugm-3,118,R,ugm-3
13-01-1994,20:00,25,R,ugm-3,44,R,ugm-3,82,R,ugm-3
13-01-1994,21:00,24,R,ugm-3,44,R,ugm-3,80,R,ugm-3
13-01-1994,22:00,20,R,ugm-3,44,R,ugm-3,74,R,ugm-3
13-01-1994,23:00,13,R,ugm-3,32,R,ugm-3,52,R,ugm-3
13-01-1994,24:00,8,R,ugm-3,32,R,ugm-3,44,R,ugm-3
14-01-1994,01:00,1,R,ugm-3,29,R,ugm-3,31,R,ugm-3
14-01-1994,02:00,0,R,ugm-3,29,R,ugm-3,29,R,ugm-3
14-01-1994,03:00,3,R,ugm-3,32,R,ugm-3,36,R,ugm-3
14-01-1994,04:00,3,R,ugm-3,34,R,ugm-3,38,R,ugm-3
14-01-1994,05:00,6,R,ugm-3,38,R,ugm-3,48,R,ugm-3
14-01-1994,06:00,15,R,ugm-3,44,R,ugm-3,67,R,ugm-3
14-01-1994,07:00,48,R,ugm-3,63,R,ugm-3,136,R,ugm-3
14-01-1994,08:00,70,R,ugm-3,73,R,ugm-3,180,R,ugm-3
14-01-1994,09:00,66,R,ugm-3,78,R,ugm-3,180,R,ugm-3
14-01-1994,10:00,53,R,ugm-3,65,R,ugm-3,145,R,ugm-3
14-01-1994,11:00,50,R,ugm-3,57,R,ugm-3,134,R,ugm-3
14-01-1994,12:00,43,R,ugm-3,55,R,ugm-3,120,R,ugm-3
14-01-1994,13:00,35,R,ugm-3,52,R,ugm-3,105,R,ugm-3
14-01-1994,14:00,43,R,ugm-3,53,R,ugm-3,118,R,ugm-3
14-01-1994,15:00,41,R,ugm-3,53,R,ugm-3,117,R,ugm-3
14-01-1994,16:00,50,R,ugm-3,59,R,ugm-3,136,R,ugm-3
14-01-1994,17:00,58,R,ugm-3,69,R,ugm-3,157,R,ugm-3
14-01-1994,18:00,68,R,ugm-3,73,R,ugm-3,176,R,ugm-3
14-01-1994,19:00,51,R,ugm-3,61,R,ugm-3,139,R,ugm-3
14-01-1994,20:00,43,R,ugm-3,55,R,ugm-3,120,R,ugm-3
14-01-1994,21:00,43,R,ugm-3,59,R,ugm-3,124,R,ugm-3
14-01-1994,22:00,41,R,ugm-3,61,R,ugm-3,124,R,ugm-3
14-01-1994,23:00,23,R,ugm-3,52,R,ugm-3,86,R,ugm-3
14-01-1994,24:00,11,R,ugm-3,48,R,ugm-3,65,R,ugm-3
15-01-1994,01:00,19,R,ugm-3,32,R,ugm-3,61,R,ugm-3
15-01-1994,02:00,18,R,ugm-3,38,R,ugm-3,65,R,ugm-3
15-01-1994,03:00,13,R,ugm-3,36,R,ugm-3,55,R,ugm-3
15-01-1994,04:00,14,R,ugm-3,42,R,ugm-3,63,R,ugm-3
15-01-1994,05:00,28,R,ugm-3,44,R,ugm-3,86,R,ugm-3
15-01-1994,06:00,8,R,ugm-3,52,R,ugm-3,63,R,ugm-3
15-01-1994,07:00,23,R,ugm-3,48,R,ugm-3,82,R,ugm-3
15-01-1994,08:00,33,R,ugm-3,52,R,ugm-3,101,R,ugm-3
15-01-1994,09:00,85,R,ugm-3,55,R,ugm-3,185,R,ugm-3
15-01-1994,10:00,124,R,ugm-3,61,R,ugm-3,250,R,ugm-3
15-01-1994,11:00,96,R,ugm-3,63,R,ugm-3,210,R,ugm-3
15-01-1994,12:00,65,R,ugm-3,50,R,ugm-3,149,R,ugm-3
15-01-1994,13:00,53,R,ugm-3,46,R,ugm-3,126,R,ugm-3
15-01-1994,14:00,43,R,ugm-3,50,R,ugm-3,115,R,ugm-3
15-01-1994,15:00,25,R,ugm-3,52,R,ugm-3,90,R,ugm-3
15-01-1994,16:00,35,R,ugm-3,57,R,ugm-3,111,R,ugm-3
15-01-1994,17:00,33,R,ugm-3,61,R,ugm-3,111,R,ugm-3
15-01-1994,18:00,20,R,ugm-3,57,R,ugm-3,88,R,ugm-3
15-01-1994,19:00,13,R,ugm-3,52,R,ugm-3,71,R,ugm-3
15-01-1994,20:00,21,R,ugm-3,50,R,ugm-3,82,R,ugm-3
15-01-1994,21:00,10,R,ugm-3,52,R,ugm-3,67,R,ugm-3
15-01-1994,22:00,8,R,ugm-3,44,R,ugm-3,55,R,ugm-3
15-01-1994,23:00,4,R,ugm-3,40,R,ugm-3,46,R,ugm-3
15-01-1994,24:00,1,R,ugm-3,34,R,ugm-3,36,R,ugm-3
16-01-1994,01:00,1,R,ugm-3,31,R,ugm-3,32,R,ugm-3
16-01-1994,02:00,38,R,ugm-3,44,R,ugm-3,101,R,ugm-3
16-01-1994,03:00,3,R,ugm-3,31,R,ugm-3,34,R,ugm-3
16-01-1994,04:00,0,R,ugm-3,19,R,ugm-3,19,R,ugm-3
16-01-1994,05:00,0,R,ugm-3,23,R,ugm-3,23,R,ugm-3
16-01-1994,06:00,0,R,ugm-3,25,R,ugm-3,25,R,ugm-3
16-01-1994,07:00,11,R,ugm-3,34,R,ugm-3,52,R,ugm-3
16-01-1994,08:00,23,R,ugm-3,40,R,ugm-3,74,R,ugm-3
16-01-1994,09:00,31,R,ugm-3,42,R,ugm-3,90,R,ugm-3
16-01-1994,10:00,33,R,ugm-3,34,R,ugm-3,84,R,ugm-3
16-01-1994,11:00,55,R,ugm-3,42,R,ugm-3,126,R,ugm-3
16-01-1994,12:00,45,R,ugm-3,40,R,ugm-3,109,R,ugm-3
16-01-1994,13:00,41,R,ugm-3,34,R,ugm-3,97,R,ugm-3
16-01-1994,14:00,29,R,ugm-3,32,R,ugm-3,76,R,ugm-3
16-01-1994,15:00,36,R,ugm-3,38,R,ugm-3,94,R,ugm-3
16-01-1994,16:00,54,R,ugm-3,48,R,ugm-3,130,R,ugm-3
16-01-1994,17:00,139,R,ugm-3,57,R,ugm-3,269,R,ugm-3
16-01-1994,18:00,108,R,ugm-3,59,R,ugm-3,223,R,ugm-3
16-01-1994,19:00,80,R,ugm-3,55,R,ugm-3,178,R,ugm-3
16-01-1994,20:00,64,R,ugm-3,48,R,ugm-3,145,R,ugm-3
16-01-1994,21:00,43,R,ugm-3,46,R,ugm-3,111,R,ugm-3
16-01-1994,22:00,25,R,ugm-3,44,R,ugm-3,82,R,ugm-3
16-01-1994,23:00,23,R,ugm-3,42,R,ugm-3,76,R,ugm-3
16-01-1994,24:00,10,R,ugm-3,29,R,ugm-3,44,R,ugm-3
17-01-1994,01:00,1,R,ugm-3,23,R,ugm-3,25,R,ugm-3
17-01-1994,02:00,0,R,ugm-3,19,R,ugm-3,19,R,ugm-3
17-01-1994,03:00,0,R,ugm-3,19,R,ugm-3,19,R,ugm-3
17-01-1994,04:00,0,R,ugm-3,21,R,ugm-3,21,R,ugm-3
17-01-1994,05:00,3,R,ugm-3,31,R,ugm-3,34,R,ugm-3
17-01-1994,06:00,16,R,ugm-3,44,R,ugm-3,69,R,ugm-3
17-01-1994,07:00,50,R,ugm-3,55,R,ugm-3,132,R,ugm-3
17-01-1994,08:00,79,R,ugm-3,61,R,ugm-3,181,R,ugm-3
17-01-1994,09:00,90,R,ugm-3,63,R,ugm-3,201,R,ugm-3
17-01-1994,10:00,104,R,ugm-3,59,R,ugm-3,218,R,ugm-3
17-01-1994,11:00,71,R,ugm-3,53,R,ugm-3,162,R,ugm-3
17-01-1994,12:00,59,R,ugm-3,50,R,ugm-3,139,R,ugm-3
17-01-1994,13:00,59,R,ugm-3,53,R,ugm-3,143,R,ugm-3
17-01-1994,14:00,69,R,ugm-3,59,R,ugm-3,164,R,ugm-3
17-01-1994,15:00,110,R,ugm-3,71,R,ugm-3,239,R,ugm-3
17-01-1994,16:00,138,R,ugm-3,82,R,ugm-3,292,R,ugm-3
17-01-1994,17:00,209,R,ugm-3,90,R,ugm-3,409,R,ugm-3
17-01-1994,18:00,318,R,ugm-3,88,R,ugm-3,573,R,ugm-3
17-01-1994,19:00,175,R,ugm-3,76,R,ugm-3,344,R,ugm-3
17-01-1994,20:00,116,R,ugm-3,74,R,ugm-3,252,R,ugm-3
17-01-1994,21:00,81,R,ugm-3,69,R,ugm-3,193,R,ugm-3
17-01-1994,22:00,113,R,ugm-3,74,R,ugm-3,246,R,ugm-3
17-01-1994,23:00,63,R,ugm-3,67,R,ugm-3,162,R,ugm-3
17-01-1994,24:00,38,R,ugm-3,55,R,ugm-3,113,R,ugm-3
18-01-1994,01:00,30,R,ugm-3,42,R,ugm-3,88,R,ugm-3
18-01-1994,02:00,18,R,ugm-3,31,R,ugm-3,57,R,ugm-3
18-01-1994,03:00,19,R,ugm-3,27,R,ugm-3,55,R,ugm-3
18-01-1994,04:00,16,R,ugm-3,32,R,ugm-3,57,R,ugm-3
18-01-1994,05:00,25,R,ugm-3,40,R,ugm-3,78,R,ugm-3
18-01-1994,06:00,44,R,ugm-3,50,R,ugm-3,117,R,ugm-3
18-01-1994,07:00,91,R,ugm-3,61,R,ugm-3,201,R,ugm-3
18-01-1994,08:00,94,R,ugm-3,69,R,ugm-3,212,R,ugm-3
18-01-1994,09:00,108,R,ugm-3,73,R,ugm-3,237,R,ugm-3
18-01-1994,10:00,109,R,ugm-3,71,R,ugm-3,237,R,ugm-3
18-01-1994,11:00,115,R,ugm-3,71,R,ugm-3,246,R,ugm-3
18-01-1994,12:00,96,R,ugm-3,65,R,ugm-3,212,R,ugm-3
18-01-1994,13:00,50,R,ugm-3,46,R,ugm-3,122,R,ugm-3
18-01-1994,14:00,48,R,ugm-3,38,R,ugm-3,111,R,ugm-3
18-01-1994,15:00,48,R,ugm-3,42,R,ugm-3,115,R,ugm-3
18-01-1994,16:00,68,R,ugm-3,61,R,ugm-3,164,R,ugm-3
18-01-1994,17:00,49,R,ugm-3,57,R,ugm-3,132,R,ugm-3
18-01-1994,18:00,60,R,ugm-3,67,R,ugm-3,159,R,ugm-3
18-01-1994,19:00,45,R,ugm-3,55,R,ugm-3,124,R,ugm-3
18-01-1994,20:00,39,R,ugm-3,48,R,ugm-3,107,R,ugm-3
18-01-1994,21:00,28,R,ugm-3,38,R,ugm-3,80,R,ugm-3
18-01-1994,22:00,35,R,ugm-3,46,R,ugm-3,99,R,ugm-3
18-01-1994,23:00,24,R,ugm-3,38,R,ugm-3,74,R,ugm-3
18-01-1994,24:00,28,R,ugm-3,59,R,ugm-3,101,R,ugm-3
19-01-1994,01:00,15,R,ugm-3,32,R,ugm-3,55,R,ugm-3
19-01-1994,02:00,14,R,ugm-3,34,R,ugm-3,55,R,ugm-3
19-01-1994,03:00,20,R,ugm-3,36,R,ugm-3,67,R,ugm-3
19-01-1994,04:00,18,R,ugm-3,36,R,ugm-3,63,R,ugm-3
19-01-1994,05:00,33,R,ugm-3,40,R,ugm-3,90,R,ugm-3
19-01-1994,06:00,90,R,ugm-3,61,R,ugm-3,199,R,ugm-3
19-01-1994,07:00,169,R,ugm-3,71,R,ugm-3,329,R,ugm-3
19-01-1994,08:00,251,R,ugm-3,80,R,ugm-3,464,R,ugm-3
19-01-1994,09:00,281,R,ugm-3,88,R,ugm-3,518,R,ugm-3
19-01-1994,10:00,199,R,ugm-3,80,R,ugm-3,384,R,ugm-3
19-01-1994,11:00,178,R,ugm-3,76,R,ugm-3,348,R,ugm-3
19-01-1994,12:00,103,R,ugm-3,61,R,ugm-3,218,R,ugm-3
19-01-1994,13:00,63,R,ugm-3,44,R,ugm-3,139,R,ugm-3
19-01-1994,14:00,65,R,ugm-3,44,R,ugm-3,143,R,ugm-3
19-01-1994,15:00,76,R,ugm-3,52,R,ugm-3,168,R,ugm-3
19-01-1994,16:00,80,R,ugm-3,61,R,ugm-3,183,R,ugm-3
19-01-1994,17:00,84,R,ugm-3,69,R,ugm-3,197,R,ugm-3
19-01-1994,18:00,149,R,ugm-3,80,R,ugm-3,308,R,ugm-3
19-01-1994,19:00,149,R,ugm-3,73,R,ugm-3,300,R,ugm-3
19-01-1994,20:00,159,R,ugm-3,71,R,ugm-3,313,R,ugm-3
19-01-1994,21:00,126,R,ugm-3,74,R,ugm-3,267,R,ugm-3
19-01-1994,22:00,128,R,ugm-3,73,R,ugm-3,267,R,ugm-3
19-01-1994,23:00,75,R,ugm-3,67,R,ugm-3,181,R,ugm-3
19-01-1994,24:00,41,R,ugm-3,53,R,ugm-3,117,R,ugm-3
20-01-1994,01:00,28,R,ugm-3,44,R,ugm-3,86,R,ugm-3
20-01-1994,02:00,23,R,ugm-3,40,R,ugm-3,74,R,ugm-3
20-01-1994,03:00,24,R,ugm-3,40,R,ugm-3,76,R,ugm-3
20-01-1994,04:00,16,R,ugm-3,31,R,ugm-3,55,R,ugm-3
20-01-1994,05:00,20,R,ugm-3,36,R,ugm-3,67,R,ugm-3
20-01-1994,06:00,51,R,ugm-3,50,R,ugm-3,128,R,ugm-3
20-01-1994,07:00,124,R,ugm-3,65,R,ugm-3,254,R,ugm-3
20-01-1994,08:00,128,R,ugm-3,67,R,ugm-3,262,R,ugm-3
20-01-1994,09:00,158,R,ugm-3,71,R,ugm-3,311,R,ugm-3
20-01-1994,10:00,170,R,ugm-3,74,R,ugm-3,334,R,ugm-3
20-01-1994,11:00,151,R,ugm-3,73,R,ugm-3,304,R,ugm-3
20-01-1994,12:00,146,R,ugm-3,67,R,ugm-3,290,R,ugm-3
20-01-1994,13:00,95,R,ugm-3,63,R,ugm-3,208,R,ugm-3
20-01-1994,14:00,76,R,ugm-3,57,R,ugm-3,174,R,ugm-3